"Pseudo-MPEC" for P11JSXm

Created 2023 Sep 20 2:22:22 UT using Find_Orb

Click here for an explanation of pseudo-MPECs

 
 Astrometry: 
     P11JSXm  C2023 09 12WdiC$?T6Q]h*EW5Hq?gxk;sqJxyg*aDo*A3/:BykYgu$y0p)mnt.F52
     P11JSXm  C2023 09 12gF2@yJ`x?Et-.4O-bOUAN@GDI;lx#ZDjCjJ^BD]QkQZx1BMf=!,eF52
     P11JSXm  C2023 09 12y0Zlb7Astrometry`')K*AnNX0%I;9L6redacted;OmS+Sr^cRPKF52
     P11JSXm* C2023 09 18DV1K6oQAjEII/)L%BN+XXxfclick=R^!ok,uib`nSUENDw#.ZO3#F51
     P11JSXm  C2023 09 18$r56qUS#nTr9:G(W.v0=v^=@5tNpJ;M(4_rKb@Y4Yt6aQD7aa3yYF51
     P11JSXm  C2023 09 18T4S\^WR1_f(hereW%T(AtbUS\kngi+(Q?'dMo=cTu;?4[Gl`UN'OF51
     P11JSXm  C2023 09 1867(L\vmL\uW!ANr87g-EhGHOv0,3G49*e-0!(g_.*1ukh(6jK7lTF51
     P11JSXm  C2023 09 18nhdUfhoJ-VZ.8Gdw/forHb/DSQDuQ5g_)VJ)1jLZ:Y6NB)u,^UCGF51
     P11JSXm KC2023 09 19Svy3@teV$9r(w]rIrf\.:$kierMtou'kN:fYv^5jf2(9[%rb@PT/H21
     P11JSXm KC2023 09 19o7iufpf:eRpDN5\YIPafaA^$ahXK^^bMYNxEh=R8aZ'xxa!)=o^-H21
     P11JSXm KC2023 09 19BFuKY83aqa9p)VAq7Io5dpr@3g^rNZrJZC]r0DCq]nT9pO1-RwQoH21
     P11JSXm KC2023 09 197d]u6eVb5j_s=oq:@U.tH%JY2:cskY0/p+[;explanationbK`HxH21
     P11JSXm  C2023 09 19#qo=8$L2M+6`q9[fE:vUd[/EwqJ7sH:k1]B7IIB`0:S0O?0Co?-PF51
     P11JSXm  C2023 09 19N,'EWs%2wD!t5JCXdSLqUj(x_G+jukKtHjm(V1%fy6kwHUPN'H)qF51
     P11JSXm 1C2023 09 19.90743 22 52 46.46 -05 11 49.4    ~9JM7 20.5 VXNEOCP033
     P11JSXm 1C2023 09 19.90870 22 52 45.38 -05 11 49.0    ~9JM7 20.4 VXNEOCP033
     P11JSXm 1C2023 09 19.90997 22 52 44.23 -05 11 49.1    ~9JM7 20.7 VXNEOCP033

Station data:
(033) Karl Schwarzschild Observatory, Tautenburg  (N50.980137 E11.711240)
   Germany.  Observer B. Stecklum. 1.34-m f/3 Schmidt + CCD.
(F51) Pan-STARRS 1, Haleakala  (N20.707234 W156.255910)  US/Hawaii.
   Observers J. Bulger, T. Lowe, A. Schultz, M. Willman. Measurers K.
   Chambers, S. Chastel, T. de Boer, L. Denneau, J. Fairlamb, H. Flewelling,
   M. Huber, C.-C. Lin, E. Magnier, Y. Ramanjooloo, R. Wainscoat, R. Weryk.
   1.8-m Ritchey-Chrétien + CCD.
(F52) Pan-STARRS 2, Haleakala  (N20.707382 W156.255910)  US/Hawaii.
   Observers J. Bulger, T. Dukes, T. Lowe, A. Schultz, M. Willman. Measurers
   K. Chambers, S. Chastel, T. de Boer, L. Denneau, J. Fairlamb, H.
   Flewelling, M. Huber, C.-C. Lin, E. Magnier, Y. Ramanjooloo, R. Wainscoat,
   R. Weryk. 1.8-m Ritchey-Chrétien + CCD.
(H21) Astronomical Research Observatory, Westfield  (N39.483054 W87.968270)
   US/Illinois.  Observer R. Holmes. Measurers S. Foglia, L. Buzzi, T.
   Linder, R. Holmes. 0.76-m f/3.0 astrograph + CCD0.81-m f/4.0 astrograph +
   CCD0.61-m f/4.5 astrograph + CCD0.40-m f/5.32 astrograph + CCD.

Orbital elements:  P11JSXm
   Perihelion 2023 Nov 8.18134 +/- 0.0505 TT =  4:21:07 (JD 2460256.68134)
Epoch 2023 Sep 19.0 TT = JDT 2460206.5   Earth MOID: 0.0052   Ve: 0.0107
M 347.03827874 +/- 0.13             Ma: 0.0224                   AutoNEOCP
n   0.25829762 +/- 0.00239          Peri.   90.16528 +/- 0.0017
a   2.44186945 +/- 0.015            Node   353.85591 +/- 0.0011
e   0.7470942 +/- 0.00178           Incl.    2.87092 +/- 0.007
P   3.82                   H 26.41  G  0.15   U  8.7
q 0.61756271 +/- 0.000544    Q 4.26617619 +/- 0.0306      (J2000 ecliptic)
From 17 observations 2023 Sept. 12-19; mean residual 0".25
Residuals in arcseconds: 
230912 F52  .04+  .31-    230918 F51  .01-  .03-    230919 F51  .27+  .00     
230912 F52  .08-  .62+    230918 F51  .08-  .31-    230919 F51  .40-  .08+    
230912 F52  .03+  .25-    230919 H21  .07-  .48+    230919 033  .08+  .38-    
230918 F51  .12-  .08-    230919 H21  .07+  .18+    230919 033  .42+  .09+    
230918 F51  .06+  .10-    230919 H21  .10+  .46+    230919 033  .27-  .07+    
230918 F51  .21+  .08+    230919 H21  .03-  .41+    

Ephemerides (geocentric):
Date (UTC) HH   RA             Dec           delta  r     elong  mag " sig PA
---- --------  ------------   ------------  ------ ------ -----  --- --------
2023 09 20 02  22 50 15.032   -05 09 34.31  .05085 1.0538 165.3 20.9 .246 170
2023 09 20 03  22 49 37.600   -05 09 34.57  .05038 1.0533 165.1 20.8 .251 169
2023 09 20 04  22 48 59.460   -05 09 34.67  .04990 1.0527 164.9 20.8 .256 168
2023 09 20 05  22 48 20.589   -05 09 34.60  .04942 1.0522 164.7 20.8 .261 167
2023 09 20 06  22 47 40.969   -05 09 34.35  .04895 1.0517 164.5 20.8 .266 166
2023 09 20 07  22 47 00.577   -05 09 33.92  .04847 1.0512 164.3 20.8 .271 165
2023 09 20 08  22 46 19.391   -05 09 33.30  .04800 1.0507 164.1 20.8 .277 164
2023 09 20 09  22 45 37.389   -05 09 32.46  .04752 1.0502 163.9 20.7 .283 163
2023 09 20 10  22 44 54.546   -05 09 31.42  .04705 1.0497 163.6 20.7 .289 162
2023 09 20 11  22 44 10.838   -05 09 30.14  .04658 1.0491 163.4 20.7 .296 161
2023 09 20 12  22 43 26.240   -05 09 28.62  .04611 1.0486 163.2 20.7 .303 160
2023 09 20 13  22 42 40.725   -05 09 26.84  .04563 1.0481 163.0 20.7 .310 159
2023 09 20 14  22 41 54.264   -05 09 24.80  .04516 1.0476 162.8 20.7 .317 158
2023 09 20 15  22 41 06.830   -05 09 22.47  .04469 1.0471 162.5 20.7 .325 157
2023 09 20 16  22 40 18.392   -05 09 19.84  .04422 1.0466 162.3 20.6 .334 156
2023 09 20 17  22 39 28.920   -05 09 16.90  .04375 1.0460 162.1 20.6 .342 155
2023 09 20 18  22 38 38.380   -05 09 13.62  .04328 1.0455 161.8 20.6 .352 154
2023 09 20 19  22 37 46.741   -05 09 09.99  .04281 1.0450 161.6 20.6 .361 153
2023 09 20 20  22 36 53.965   -05 09 05.98  .04234 1.0445 161.3 20.6 .371 152
2023 09 20 21  22 36 00.018   -05 09 01.58  .04188 1.0440 161.0 20.6 .382 150
2023 09 20 22  22 35 04.862   -05 08 56.76  .04141 1.0435 160.8 20.5 .394 149
2023 09 20 23  22 34 08.456   -05 08 51.51  .04094 1.0430 160.5 20.5 .406 148
2023 09 21 00  22 33 10.760   -05 08 45.78  .04048 1.0424 160.2 20.5 .418 147
2023 09 21 01  22 32 11.731   -05 08 39.56  .04001 1.0419 160.0 20.5 .431 146
2023 09 21 02  22 31 11.324   -05 08 32.82  .03955 1.0414 159.7 20.5 .445 145
2023 09 21 03  22 30 09.493   -05 08 25.53  .03909 1.0409 159.4 20.4 .460 144
2023 09 21 04  22 29 06.189   -05 08 17.65  .03863 1.0404 159.1 20.4 .476 143
2023 09 21 05  22 28 01.362   -05 08 09.16  .03817 1.0399 158.8 20.4 .493 142
2023 09 21 06  22 26 54.959   -05 08 00.00  .03771 1.0394 158.5 20.4 .510 140
2023 09 21 07  22 25 46.924   -05 07 50.15  .03725 1.0388 158.2 20.4 .528 139
2023 09 21 08  22 24 37.201   -05 07 39.57  .03679 1.0383 157.8 20.4 .548 138
2023 09 21 09  22 23 25.728   -05 07 28.20  .03633 1.0378 157.5 20.3 .569 137
2023 09 21 10  22 22 12.444   -05 07 16.00  .03587 1.0373 157.2 20.3 .591 136
2023 09 21 11  22 20 57.282   -05 07 02.92  .03542 1.0368 156.8 20.3 .614 135
2023 09 21 12  22 19 40.174   -05 06 48.90  .03496 1.0363 156.5 20.3 .638 134
2023 09 21 13  22 18 21.048   -05 06 33.90  .03451 1.0357 156.1 20.3 .664 133
2023 09 21 14  22 16 59.830   -05 06 17.83  .03406 1.0352 155.7 20.3 .691 132
2023 09 21 15  22 15 36.439   -05 06 00.65  .03361 1.0347 155.3 20.2 .720 131
2023 09 21 16  22 14 10.796   -05 05 42.28  .03316 1.0342 155.0 20.2 .751 130
2023 09 21 17  22 12 42.813   -05 05 22.63  .03271 1.0337 154.6 20.2 .784 129
2023 09 21 18  22 11 12.400   -05 05 01.65  .03226 1.0332 154.1 20.2 .818 128
2023 09 21 19  22 09 39.464   -05 04 39.22  .03182 1.0327 153.7 20.2 .854 127
2023 09 21 20  22 08 03.907   -05 04 15.27  .03138 1.0321 153.3 20.1 .893 126
2023 09 21 21  22 06 25.623   -05 03 49.69  .03093 1.0316 152.9 20.1 .934 125
2023 09 21 22  22 04 44.507   -05 03 22.38  .03049 1.0311 152.4 20.1 .977 124
2023 09 21 23  22 03 00.444   -05 02 53.22  .03005 1.0306 151.9 20.1 1.02 123
2023 09 22 00  22 01 13.316   -05 02 22.09  .02962 1.0301 151.5 20.1 1.07 123
2023 09 22 01  21 59 22.999   -05 01 48.86  .02918 1.0296 151.0 20.0 1.12 122